Location: Courcelles
(49.2596°N, 1.7419°E)
Time: 02:56:44
(UTC+00:00)

Cosmos 2026 Rocket - Pass Details

Date: 17 November 2025
Orbit: 937 x 1000 km, 82.9° (Epoch: 04 December)

Event Time Altitude Azimuth Distance (km) Brightness Sun altitude
Rises 17:49:26 0° 355° (N) 3,614 6.9 -16.2°
Reaches altitude 10° 17:52:08 10° 3° (N) 2,668 6.2 -16.6°
Maximum altitude 17:57:46 38° 71° (ENE) 1,414 4.3 -17.6°
Drops below altitude 10° 18:03:25 10° 138° (SE) 2,680 6.0 -18.5°
Sets 18:06:07 0° 147° (SSE) 3,631 6.7 -18.9°
